Regional Weather Roundup
Issued by NWS

Home | Current Version | Previous Version | Graphics & Text | Print | Product List | Glossary On
Versions: 1 2 3 4 5 6 7 8 9 10 11 12 13 14 15 16 17 18 19 20 21 22 23 24 25 26 27 28 29 30 31 32 33 34 35 36 37 38 39 40 41 42 43 44 45 46 47 48 49 50
000
ASUS45 KBOI 010110
RWRID

IDAHO REGIONAL WEATHER ROUNDUP
NATIONAL WEATHER SERVICE BOISE ID
700 PM MDT SAT APR 30 2016

NOTE: "FAIR" INDICATES FEW OR NO CLOUDS BELOW 12000 FEET
WITH NO SIGNIFICANT WEATHER AND/OR OBSTRUCTIONS TO VISIBILITY

IDZ012-014-010200-
SOUTHWEST IDAHO


CITY           SKY/WX    TMP DP  RH WIND       PRES   REMARKS
BOISE          SUNNY     65  30  27 NW24G33   30.00R
CALDWELL       SUNNY     63  39  41 NW23G30   30.04R
MOUNTAIN HOME  PTSUNNY   66  35  31 NW24G32   29.99S
$$

IDZ016-017-010200-
SOUTHCENTRAL IDAHO


CITY           SKY/WX    TMP DP  RH WIND       PRES   REMARKS
BURLEY         PTSUNNY   48  42  80 W8        30.04R
JEROME         CLOUDY    53  39  59 NW14      30.05S
TWIN FALLS     CLOUDY    55  38  52 N14       30.05R
$$

IDZ019>023-010200-
SOUTHEAST IDAHO


CITY           SKY/WX    TMP DP  RH WIND       PRES   REMARKS
IDAHO FALLS    LGT RAIN  56  34  43 E15G24    30.03R
POCATELLO      PTSUNNY   56  39  53 W6        30.03S
REXBURG        PTSUNNY   57  30  35 NE15      30.02R
$$

IDZ006-010-011-018-031-032-010200-
CENTRAL IDAHO MOUNTAINS


CITY           SKY/WX    TMP DP  RH WIND       PRES   REMARKS
MCCALL         PTSUNNY   51  32  48 N14       30.10R
HAILEY         PTSUNNY   52  37  58 CALM      30.08R
STANLEY          N/A     48  27  44 NE3G16    30.11R
SALMON         CLOUDY    48  37  66 E9G18     30.16R
CHALLIS        CLOUDY    52  30  43 N12       30.11R
$$

IDZ002-004-006-007-026-010200-
NORTHERN IDAHO


CITY           SKY/WX    TMP DP  RH WIND       PRES   REMARKS
LEWISTON       MOSUNNY   62  45  53 N3        30.20F
LOWELL           N/A     61  45  55 SE6       30.17R
COEUR D`ALENE  MOSUNNY   55  45  67 SW8       30.21F
MULLAN PASS    CLOUDY    43  31  62 CALM      30.26R
$$



USA.gov is the U.S. government's official web portal to all federal, state and local government web resources and services.